Fayetteville, NC

1:27 AM EDT on April 30, 2017 (GMT -0400)
Fayetteville Regional-Grannis

Weather History for KFAY - May, 2013

Change the Weather History Date:

Thursday, May 9, 2013

  Actual Average Record
Temperature  
Mean Temperature 71 °F 69 °F  
Max Temperature 84 °F 81 °F 97 °F (1936)
Min Temperature 58 °F 57 °F 37 °F (1956)
Degree Days  
Heating Degree Days 0 1  
Month to date heating degree days 22 15  
Since 1 July heating degree days 2748 2722  
Cooling Degree Days 6 5  
Month to date cooling degree days 8 39  
Year to date cooling degree days 79 122  
Growing Degree Days 20 (Base 50)    
Moisture  
Dew Point 56 °F    
Average Humidity 67    
Maximum Humidity 100    
Minimum Humidity 34    
Precipitation  
Precipitation 0.00 in 0.08 in 2.25 in (1910)
Month to date precipitation 0.78 0.64  
Year to date precipitation 12.14 13.07  
Sea Level Pressure  
Sea Level Pressure 30.01 in    
Wind  
Wind Speed 4 mph (NW)    
Max Wind Speed 15 mph    
Max Gust Speed 22 mph    
Visibility 7 miles    
Events      
T = Trace of Precipitation, MM = Missing Value Source: NWS Daily Summary

Daily Weather History Graph

Daily Weather History Graph

Search for Another Location

Airport or City:

Trip Planner

Search our weather history database for the weather conditions in past years. The results will help you decide how hot, cold, wet, or windy it might be!

Date:

Astronomy

May. 09, 2013 Rise Set
Actual Time 6:16 AM EDT 8:07 PM EDT
Civil Twilight 5:49 AM EDT 8:35 PM EDT
Nautical Twilight 5:15 AM EDT 9:08 PM EDT
Astronomical Twilight 4:40 AM EDT 9:44 PM EDT
Moon 5:58 AM EDT (5/9) 8:01 PM EDT (5/9)
Length of Visible Light 14h 46m
Length of Day
13h 50m
Waning Crescent, 0% of the Moon is Illuminated
May 9
Waning Crescent
May 9
New
May 18
First Quarter
May 25
Full
May 31
Last Quarter

Hourly Weather History & Observations

Time (EDT) Temp. Dew Point Humidity Pressure Visibility Wind Dir Wind Speed Gust Speed Precip Events Conditions
12:53 AM 64.0 °F 60.1 °F 87% 29.99 in 10.0 mi Calm Calm - 0.01 in   Overcast
1:53 AM 61.0 °F 59.0 °F 93% 29.97 in 5.0 mi North 3.5 mph - N/A   Mostly Cloudy
2:53 AM 61.0 °F 60.1 °F 97% 29.96 in 5.0 mi Calm Calm - N/A   Clear
3:53 AM 61.0 °F 60.1 °F 97% 29.96 in 8.0 mi Calm Calm - 0.01 in   Overcast
4:46 AM 59.0 °F 57.2 °F 94% 29.99 in 1.5 mi NNE 5.8 mph - N/A   Mostly Cloudy
4:53 AM 57.9 °F 57.0 °F 97% 29.98 in 0.8 mi NNE 4.6 mph - N/A   Mostly Cloudy
4:58 AM 57.2 °F 57.2 °F 100% 29.99 in 2.5 mi North 3.5 mph - N/A   Overcast
5:05 AM 59.0 °F 57.2 °F 94% 29.99 in 3.0 mi North 3.5 mph - N/A   Overcast
5:08 AM 59.0 °F 57.2 °F 94% 29.99 in 1.8 mi North 3.5 mph - N/A   Overcast
5:23 AM 59.0 °F 57.2 °F 94% 29.99 in 3.0 mi Calm Calm - N/A   Overcast
5:53 AM 59.0 °F 57.9 °F 96% 29.98 in 5.0 mi Calm Calm - N/A   Mostly Cloudy
6:44 AM 59.0 °F 57.2 °F 94% 30.02 in 1.0 mi Calm Calm - N/A   Clear
6:51 AM 59.0 °F 57.2 °F 94% 30.02 in 4.0 mi Calm Calm - N/A   Clear
6:53 AM 57.9 °F 57.9 °F 100% 30.00 in 4.0 mi Calm Calm - N/A   Clear
7:53 AM 63.0 °F 60.1 °F 90% 30.03 in 10.0 mi Calm Calm - N/A   Clear
8:53 AM 68.0 °F 60.1 °F 76% 30.04 in 10.0 mi NW 4.6 mph - N/A   Clear
9:53 AM 72.0 °F 55.9 °F 57% 30.05 in 10.0 mi NW 6.9 mph - N/A   Clear
10:53 AM 75.0 °F 52.0 °F 44% 30.05 in 10.0 mi North 9.2 mph - N/A   Clear
11:53 AM 75.9 °F 51.1 °F 42% 30.05 in 10.0 mi Variable 4.6 mph - N/A   Clear
1:53 PM 79.0 °F 52.0 °F 39% 30.03 in 10.0 mi WSW 10.4 mph - N/A   Clear
2:53 PM 79.0 °F 52.0 °F 39% 30.02 in 10.0 mi WNW 6.9 mph - N/A   Partly Cloudy
4:53 PM 82.9 °F 51.1 °F 33% 30.00 in 10.0 mi NNW 6.9 mph - N/A   Clear
5:53 PM 82.9 °F 51.1 °F 33% 30.00 in 10.0 mi Calm Calm - N/A   Scattered Clouds
6:53 PM 81.0 °F 52.0 °F 36% 30.00 in 10.0 mi West 4.6 mph - N/A   Clear
7:53 PM 77.0 °F 54.0 °F 45% 30.01 in 10.0 mi SW 3.5 mph - N/A   Clear
8:53 PM 71.1 °F 57.0 °F 61% 30.03 in 10.0 mi Calm Calm - N/A   Clear
9:53 PM 66.9 °F 57.9 °F 73% 30.06 in 10.0 mi South 3.5 mph - N/A   Clear
10:53 PM 66.9 °F 59.0 °F 76% 30.05 in 10.0 mi SSW 3.5 mph - N/A   Clear
11:53 PM 66.0 °F 57.0 °F 73% 30.05 in 10.0 mi SSW 5.8 mph - N/A   Clear